Other Public Products
Issued by NWS Grand Forks, ND

Home | Current Version | Previous Version | Graphics & Text | Print | Product List | Glossary On
Versions: 1 2 3 4 5 6 7 8 9 10 11 12 13 14 15 16 17 18 19 20 21 22 23 24 25 26 27 28 29 30 31 32 33 34 35 36 37 38 39 40 41 42 43 44 45 46 47 48 49 50
000
FPUS83 KFGF 191210
OPUFGF
PRAIRIE TO PINES WEATHER ROUNDUP
NATIONAL WEATHER SERVICE EASTERN NORTH DAKOTA/GRAND FORKS ND
700 AM CDT SAT AUG 19 2017

 **SATELLITE DATA USED TO AUGMENT SKY COVER AT AUTOMATED STATIONS**
 *****  WEATHER ACROSS EASTERN NORTH DAKOTA  *****

CITY           SKY/WX    TMP DP  RH WIND       PRES   REMARKS
GRAND FORKS    FAIR      55  54  96 S6        29.83R
6HR MIN TEMP:  54; 6HR MAX TEMP:  61;

GRAND FORKS AF FAIR      57  53  87 SW6       29.84R
GRAND CITY NWS NOT AVBL
BUXTON           N/A     43  57 100 SW6         N/A
DEVILS LAKE    NOT AVBL
FARGO          FAIR      59  58  96 S7        29.88R
6HR MIN TEMP:  58; 6HR MAX TEMP:  65;

WAHPETON ARPT  FAIR      54  50  87 SE3       29.92R
$$

 *****  WEATHER ACROSS CENTRAL AND WESTERN NORTH DAKOTA  *****

CITY           SKY/WX    TMP DP  RH WIND       PRES   REMARKS
JAMESTOWN      FAIR      58  54  86 SW6       29.87S
6HR MIN TEMP:  55; 6HR MAX TEMP:  61;

BISMARCK       FAIR      57  55  93 E7        29.85F
6HR MIN TEMP:  57; 6HR MAX TEMP:  62;

MINOT          FAIR      67  54  63 S12       29.76F
6HR MIN TEMP:  65; 6HR MAX TEMP:  70;

MINOT AFB      FAIR      65  54  67 S13       29.74F
6HR MIN TEMP:  58; 6HR MAX TEMP:  66;

GARRISON         N/A     59  55  87 S8        29.80F
6HR MIN TEMP:  55; 6HR MAX TEMP:  61;

WILLISTON      FAIR      61  52  72 SW6       29.74F
6HR MIN TEMP:  59; 6HR MAX TEMP:  69;

DICKINSON      FAIR      58  51  78 S15       29.79F
6HR MIN TEMP:  57; 6HR MAX TEMP:  62;

HETTINGER      FAIR      56  49  77 SE6       29.86S
6HR MIN TEMP:  56; 6HR MAX TEMP:  64;

$$

 *****  OTHER OBSERVATIONS NORTHEAST NORTH DAKOTA  *****

CITY           SKY/WX    TMP DP  RH WIND       PRES   REMARKS
WALHALLA       FAIR      64  64 100 VRB5      29.80S
LANGDON        FAIR      55  55 100 S8        29.84S
CAVALIER       FAIR      55  54  94 S6        29.80S
GRAFTON        FAIR      52  52 100 S5        29.84R
CANDO          FAIR      52  52 100 SW3       29.84S
FORT TOTTEN      N/A     61  53  76 S7        29.95S
ROLLA          FAIR      55  54  94 S7        29.82S
RUGBY          FAIR      59  55  88 S9        29.80S
 ***** THE ABOVE OBSERVATIONS ARE NON NWS ARE NOT QUALITY
        CONTROLLED AND MAY MIS-REPORT RAIN FOR SNOW...
$$

 *****  OTHER OBSERVATIONS SOUTHEAST NORTH DAKOTA *****

CITY           SKY/WX    TMP DP  RH WIND       PRES   REMARKS
COOPERSTOWN    FAIR      52  52 100 S6        29.87S FOG
VALLEY CITY      N/A     54  54 100 S3        29.89S FOG
OAKES          NOT AVBL
GWINNER        SUNNY     54  54 100 SW7       29.91R FOG
BUFFALO          N/A     43  55 100 NE6         N/A
WYNDMERE       NOT AVBL
 ***** THE ABOVE OBSERVATIONS ARE NON NWS ARE NOT QUALITY
       CONTROLLED AND MAY MIS-REPORT RAIN FOR SNOW...
$$

  *****  WEATHER ACROSS NORTHERN MINNESOTA  *****

CITY           SKY/WX    TMP DP  RH WIND       PRES   REMARKS
FLAG ISLAND    FAIR      61  54  77 CALM      29.81R
WARROAD        FAIR      55  52  88 SW6       29.84R
ROSEAU         FAIR      52  46  82 S6        29.83S
HALLOCK        FAIR      52  52 100 S8        29.82R
THF RVR FALLS  FAIR      55  54  96 S6        29.87S
6HR MIN TEMP:  54; 6HR MAX TEMP:  59;

HALSTAD        NOT AVBL
FOSSTON        FAIR      54  54 100 S6        29.89S FOG
BAUDETTE       FAIR      53  53 100 S3        29.84R
6HR MIN TEMP:  51; 6HR MAX TEMP:  57;

WASKISH        FAIR      54  54 100 CALM      29.87R FOG
CROOKSTON      FAIR      54  54 100 S7        29.86S FOG
$$
  *****  WEATHER ACROSS CENTRAL AND WEST MINNESOTA  *****

CITY           SKY/WX    TMP DP  RH WIND       PRES   REMARKS
BEMIDJI        FAIR      55  53  96 W3        29.89R
PARK RAPIDS    FOG       52  51  97 CALM      29.91R VSB 1
6HR MIN TEMP:  51; 6HR MAX TEMP:  57;

WADENA         FOG       54  54 100 CALM      29.92R VSB 1/2
DETROIT LAKES  FAIR      59  57  94 SW3       29.92R
MOORHEAD       FAIR      55  54  94 S6        29.90R FOG
FERGUS FALLS   FAIR      57  57 100 CALM      29.93R
ELBOW LAKE     FAIR      54  54 100 S5        29.93R FOG
MORRIS MN      MOCLDY    54  54 100 CALM      29.93R FOG
STAPLES        FAIR      54  54 100 CALM      29.92R
WHEATON        FAIR      55  52  88 S3        29.94R
$$
  *****  WEATHER ELSEWHERE ACROSS MINNESOTA  *****

CITY           SKY/WX    TMP DP  RH WIND       PRES   REMARKS
DULUTH         FAIR      58  58 100 NW6       29.89R
6HR MIN TEMP:  57; 6HR MAX TEMP:  58;

INTRNTL FALLS  FAIR      52  51  97 CALM      29.86R FOG
6HR MIN TEMP:  50; 6HR MAX TEMP:  58;

ELY            FAIR      54  54 100 CALM      29.88R FOG
CLOQUET        FAIR      57  55  94 W6        29.90R
BRAINERD       FAIR      54  54 100 S5        29.92R FOG
6HR MIN TEMP:  54; 6HR MAX TEMP:  57;

HIBBING        FAIR      46  46 100 SE3       29.89R FOG
6HR MIN TEMP:  46; 6HR MAX TEMP:  52;

ALEXANDRIA     FAIR      57  56  96 W6        29.95R
6HR MIN TEMP:  53; 6HR MAX TEMP:  60;

SAINT CLOUD    FOG       52  52 100 CALM      29.93R VSB<1/4
6HR MIN TEMP:  51; 6HR MAX TEMP:  56;

MINNEAPOLIS    FAIR      60  57  89 SW3       29.94R FOG
6HR MIN TEMP:  59; 6HR MAX TEMP:  63;

$$

  *****  WEATHER ACROSS SOUTH DAKOTA  *****

CITY           SKY/WX    TMP DP  RH WIND       PRES   REMARKS
SIOUX FALLS    FAIR      54  54 100 CALM      29.97S
6HR MIN TEMP:  53; 6HR MAX TEMP:  61;

BROOKINGS      FAIR      54  53  97 E3        29.97S
WATERTOWN      FAIR      51  51 100 CALM      29.95R FOG
6HR MIN TEMP:  51; 6HR MAX TEMP:  57;

HURON          FAIR      58  56  93 S7        29.93S
6HR MIN TEMP:  56; 6HR MAX TEMP:  62;

SISSETON         N/A     63  58  83 SW6       29.91R
ABERDEEN       FAIR      51  51 100 S7        29.92S FOG
6HR MIN TEMP:  49; 6HR MAX TEMP:  55;

MITCHELL       FAIR      56  55  97 E3        29.95S
PIERRE         FAIR      58  54  86 SE8       29.88S
6HR MIN TEMP:  57; 6HR MAX TEMP:  64;

MOBRIDGE       FAIR      62  59  90 S10       29.85F
RAPID CITY     FAIR      55  49  80 SE3       29.89S
6HR MIN TEMP:  54; 6HR MAX TEMP:  63;

$$

  *****  SOME WEATHER IN NEARBY STATES *****

CITY           SKY/WX    TMP DP  RH WIND       PRES   REMARKS
GLASGOW MT     FAIR      60  39  45 W8        29.76R
6HR MIN TEMP:  59; 6HR MAX TEMP:  68;

GREAT FALLS MT FAIR      59  29  31 W9        29.95R
6HR MIN TEMP:  58; 6HR MAX TEMP:  74;

CHEYENNE WY    FAIR      60  37  42 W14       30.14S
6HR MIN TEMP:  55; 6HR MAX TEMP:  66;

SCOTTSBLUFF NE FAIR      59  52  77 E6        29.97F
6HR MIN TEMP:  58; 6HR MAX TEMP:  66;

OMAHA NE       FAIR      60  56  86 N6        29.97R
6HR MIN TEMP:  59; 6HR MAX TEMP:  70;

DES MOINES IA  FAIR      65  62  90 SE5       29.92R
6HR MIN TEMP:  65; 6HR MAX TEMP:  73;

DAVENPORT IA   MOCLDY    62  61  96 CALM      29.97R
6HR MIN TEMP:  60; 6HR MAX TEMP:  63; 6HR PCP: TRACE;

CHICAGO IL     FAIR      64  60  87 NW6       29.94R
6HR MIN TEMP:  63; 6HR MAX TEMP:  71;

EAU CLAIRE WI  FOG       57  57 100 CALM      29.93R VSB<1/4
6HR MIN TEMP:  55; 6HR MAX TEMP:  62;

LA CROSSE WI   FOG       62  61  96 S3        29.94R VSB 1/4
6HR MIN TEMP:  60; 6HR MAX TEMP:  64;

$$

  *****  SOME NATIONAL WEATHER *****

CITY           SKY/WX    TMP DP  RH WIND       PRES   REMARKS
LA GUARDIA NY  PTSUNNY   77  72  84 NW6       29.82R
6HR MIN TEMP:  75; 6HR MAX TEMP:  77; 6HR PCP: TRACE;

RALEIGH NC     FAIR      76  74  93 VRB3      29.95R
6HR MIN TEMP:  73; 6HR MAX TEMP:  77; 6HR PCP:  0.01;


USA.gov is the U.S. government's official web portal to all federal, state and local government web resources and services.